Change the Weather History Date:

Tuesday, February 18, 2014

  Actual Average (KTOL) Record (KTOL)
Temperature  
Mean Temperature 34 °F 29 °F  
Max Temperature 42 °F 37 °F 59 °F (1961)
Min Temperature 26 °F 21 °F -9 °F (1936)
Degree Days  
Heating Degree Days 31 36  
Month to date heating degree days 682  
Since 1 July heating degree days 4231  
Cooling Degree Days 0 0  
Month to date cooling degree days 0  
Year to date cooling degree days 0  
Moisture  
Dew Point 23 °F    
Average Humidity 73    
Maximum Humidity 88    
Minimum Humidity 53    
Precipitation  
Precipitation 0.01 in 0.07 in 0.39 in (2009)
Month to date precipitation 1.28  
Year to date precipitation 3.33  
Snow  
Snow 0.00 in 0.40 in - ()
Month to date snowfall 6.4  
Since 1 July snowfall 27.5  
Snow Depth -    
Sea Level Pressure  
Sea Level Pressure 29.86 in    
Wind  
Wind Speed 19 mph (WSW)    
Max Wind Speed 25 mph    
Max Gust Speed 33 mph    
Visibility 5 miles    
Events Snow    
T = Trace of Precipitation, MM = Missing Value Source: NWS Daily Summary

Daily Weather History Graph

Daily Weather History Graph

Search for Another Location

Airport or City:

Trip Planner

Search our weather history database for the weather conditions in past years. The results will help you decide how hot, cold, wet, or windy it might be!

Date:

Astronomy

Feb. 18, 2014 Rise Set
Actual Time 7:24 AM EST 6:11 PM EST
Civil Twilight 6:56 AM EST 6:39 PM EST
Nautical Twilight 6:24 AM EST 7:11 PM EST
Astronomical Twilight 5:52 AM EST 7:44 PM EST
Moon 10:07 PM EST (2/18) 8:53 AM EST (2/18)
Length of Visible Light 11h 42m
Length of Day
10h 46m
Waning Gibbous, 87% of the Moon is Illuminated
Feb 18
Waning Gibbous
Feb 22
Last Quarter
Mar 1
New
Mar 8
First Quarter
Mar 16
Full

Hourly Weather History & Observations

Time (EST) Temp. Windchill Dew Point Humidity Pressure Visibility Wind Dir Wind Speed Gust Speed Precip Events Conditions
12:35 AM 28.9 °F 15.4 °F 24.1 °F 82% 29.68 in 1.8 mi WSW 21.9 mph 29.9 mph 0.00 in Snow Light Snow
12:53 AM 28.9 °F 16.9 °F 25.0 °F 85% 29.71 in 1.2 mi West 17.3 mph - 0.00 in Snow Light Snow
12:56 AM 28.9 °F 16.9 °F 25.0 °F 85% 29.69 in 1.0 mi West 17.3 mph - 0.00 in Snow Light Snow
1:05 AM 28.9 °F 17.3 °F 25.0 °F 85% 29.69 in 0.8 mi West 16.1 mph - 0.00 in Snow Light Snow
1:25 AM 28.0 °F 15.3 °F 25.0 °F 88% 29.69 in 1.0 mi West 18.4 mph 24.2 mph 0.01 in Snow Light Snow
1:35 AM 28.0 °F 15.7 °F 24.1 °F 85% 29.70 in 1.2 mi West 17.3 mph - 0.01 in Snow Light Snow
1:53 AM 28.0 °F 14.9 °F 23.0 °F 81% 29.73 in 2.0 mi West 19.6 mph - 0.01 in Snow Light Snow
1:59 AM 28.0 °F 15.7 °F 23.0 °F 81% 29.71 in 3.0 mi West 17.3 mph - 0.00 in Snow Light Snow
2:23 AM 28.0 °F 13.9 °F 21.9 °F 78% 29.73 in 1.8 mi West 23.0 mph 28.8 mph 0.00 in Snow Light Snow
2:37 AM 28.0 °F 15.3 °F 21.9 °F 78% 29.74 in 3.0 mi West 18.4 mph - 0.00 in Snow Light Snow
2:53 AM 27.0 °F 12.2 °F 21.0 °F 78% 29.77 in 2.0 mi West 24.2 mph 29.9 mph 0.00 in Snow Light Snow
3:00 AM 27.0 °F 12.5 °F 21.0 °F 78% 29.75 in 1.5 mi West 23.0 mph 31.1 mph 0.00 in Snow Light Snow
3:29 AM 26.1 °F 10.7 °F 21.0 °F 81% 29.78 in 2.0 mi West 25.3 mph 33.4 mph 0.00 in Snow Light Snow
3:53 AM 26.1 °F 12.3 °F 21.0 °F 81% 29.82 in 1.5 mi West 19.6 mph 31.1 mph 0.00 in Snow Light Snow
4:06 AM 27.0 °F 12.5 °F 19.9 °F 75% 29.80 in 2.5 mi West 23.0 mph - 0.00 in Snow Light Snow
4:15 AM 27.0 °F 11.9 °F 19.9 °F 75% 29.81 in 4.0 mi West 25.3 mph 33.4 mph 0.00 in Snow Light Snow
4:30 AM 27.0 °F 12.5 °F 19.9 °F 75% 29.82 in 5.0 mi West 23.0 mph 29.9 mph 0.00 in   Haze
4:53 AM 27.0 °F 12.5 °F 19.9 °F 75% 29.86 in 6.0 mi West 23.0 mph - 0.00 in   Haze
5:44 AM 27.0 °F 13.9 °F 19.9 °F 75% 29.88 in 6.0 mi West 18.4 mph - N/A   Haze
5:53 AM 27.0 °F 13.9 °F 19.9 °F 75% 29.91 in 6.0 mi West 18.4 mph - N/A   Haze
6:34 AM 27.0 °F 14.3 °F 19.9 °F 75% 29.92 in 6.0 mi West 17.3 mph - N/A   Haze
6:53 AM 27.0 °F 14.7 °F 19.0 °F 72% 29.95 in 7.0 mi West 16.1 mph - N/A   Overcast
7:53 AM 27.0 °F 14.7 °F 18.0 °F 69% 29.99 in 8.0 mi West 16.1 mph - N/A   Overcast
8:03 AM 27.0 °F 15.2 °F 18.0 °F 69% 29.97 in 7.0 mi West 15.0 mph - N/A   Overcast
8:14 AM 27.0 °F 16.1 °F 18.0 °F 69% 29.97 in 7.0 mi West 12.7 mph 24.2 mph N/A   Overcast
8:29 AM 27.0 °F 14.3 °F 18.0 °F 69% 29.98 in 8.0 mi West 17.3 mph - N/A   Overcast
8:53 AM 27.0 °F 14.7 °F 18.0 °F 69% 30.02 in 4.0 mi West 16.1 mph - N/A   Haze
9:53 AM 28.0 °F 18.1 °F 19.0 °F 69% 30.04 in 6.0 mi WSW 11.5 mph - N/A   Haze
10:53 AM 28.9 °F 16.9 °F 19.9 °F 69% 30.06 in 6.0 mi WSW 17.3 mph - N/A   Haze
11:53 AM 28.9 °F 18.2 °F 19.9 °F 69% 30.07 in 6.0 mi SW 13.8 mph - N/A   Haze
12:01 PM 28.9 °F 18.2 °F 19.9 °F 69% 30.04 in 6.0 mi SW 13.8 mph - N/A   Haze
12:53 PM 30.0 °F 19.5 °F 23.0 °F 75% 30.04 in 5.0 mi SW 13.8 mph - N/A   Haze
1:17 PM 32.0 °F 20.5 °F 24.1 °F 73% 30.03 in 5.0 mi SW 18.4 mph - N/A   Haze
1:43 PM 32.0 °F 23.0 °F 25.0 °F 75% 30.01 in 5.0 mi SSW 11.5 mph - N/A   Haze
1:53 PM 32.0 °F 22.5 °F 25.0 °F 75% 30.02 in 5.0 mi SSW 12.7 mph - N/A   Haze
2:53 PM 35.1 °F 25.9 °F 27.0 °F 72% 29.97 in 8.0 mi South 13.8 mph - N/A   Clear
3:53 PM 36.0 °F 27.5 °F 28.0 °F 73% 29.96 in 9.0 mi South 12.7 mph - N/A   Clear
4:53 PM 37.0 °F 28.9 °F 28.0 °F 70% 29.93 in 10.0 mi South 12.7 mph - N/A   Clear
5:53 PM 37.0 °F 27.4 °F 28.0 °F 70% 29.88 in 10.0 mi South 17.3 mph - N/A   Clear
6:53 PM 37.9 °F 27.6 °F 28.0 °F 68% 29.86 in 10.0 mi South 20.7 mph - N/A   Clear
7:53 PM 39.9 °F 30.2 °F 27.0 °F 60% 29.83 in 10.0 mi South 20.7 mph - N/A   Clear
8:53 PM 39.0 °F 29.6 °F 27.0 °F 62% 29.81 in 10.0 mi South 18.4 mph - N/A   Clear
9:53 PM 41.0 °F 32.8 °F 27.0 °F 57% 29.80 in 10.0 mi South 16.1 mph - N/A   Clear
10:53 PM 42.1 °F 33.9 °F 26.1 °F 53% 29.76 in 10.0 mi South 17.3 mph - N/A   Clear
11:53 PM 42.1 °F 33.1 °F 26.1 °F 53% 29.73 in 10.0 mi South 20.7 mph - N/A   Mostly Cloudy